Regional Weather Roundup
Issued by NWS

Home | Current Version | Previous Version | Text Only | Print | Product List | Glossary On
Versions: 1 2 3 4 5 6 7 8 9 10 11 12 13 14 15 16 17 18 19 20 21 22 23 24 25 26 27 28 29 30 31 32 33 34 35 36 37 38 39 40 41 42 43 44 45 46 47 48 49 50
000
ASUS43 KLOT 270810
RWRIL

ILLINOIS REGIONAL WEATHER ROUNDUP
NATIONAL WEATHER SERVICE CHICAGO/ROMEOVILLE IL
200 AM CST THU NOV 27 2014

NOTE: "FAIR" INDICATES FEW OR NO CLOUDS BELOW 12,000 FEET WITH NO
SIGNIFICANT WEATHER AND/OR OBSTRUCTIONS TO VISIBILITY.

* THESE STATIONS ARE NOT UNDER NWS QUALITY CONTROL. THEY ALSO MAY NOT
  REPORT WEATHER SUCH AS PRECIPITATION OR FOG.

ILZ001-002-007-009-015-016-024-270900-
NORTHWEST ILLINOIS

CITY           SKY/WX    TMP DP  RH WIND       PRES   REMARKS
MOLINE         MOCLDY    24  19  81 NW9       30.31R WCI  14
STERLING*      CLOUDY    21  18  86 NW9       30.28R WCI  11
SAVANNA*       PTCLDY    23  19  86 NW3       30.29R FOG
$$

ILZ003-004-008-010-011-017-018-270900-
NORTH CENTRAL ILLINOIS

CITY           SKY/WX    TMP DP  RH WIND       PRES   REMARKS
ROCKFORD       CLOUDY    20  16  84 NW7       30.27R FOG     WCI  11
FREEPORT*      CLOUDY    22  18  86 NW8       30.28R FOG     WCI  12
ROCHELLE*      CLOUDY    15  13  92 W3        30.26R FOG
DE KALB*       MOCLDY    16  14  92 NW10      30.23R FOG     WCI   3
PERU*          MOCLDY    20  18  91 NW9       30.27R FOG     WCI  10
$$

ILZ005-006-012>014-019>023-270900-
NORTHEAST ILLINOIS

CITY           SKY/WX    TMP DP  RH WIND       PRES   REMARKS
CHICAGO-OHARE  CLOUDY    25  20  81 NW13      30.19R WCI  14
CHICAGO-MIDWAY LGT SNOW  29  22  75 NW9       30.20R WCI  20
AURORA         PTCLDY    19  14  81 W7        30.24R HAZE    WCI  10
LANSING*       LGT SNOW  28  24  85 NW7       30.20R WCI  21
JOLIET*        CLOUDY    25  21  84 NW6       30.23R FOG     WCI  18
WAUKEGAN       PTCLDY    20  15  81 NW9       30.20R WCI   9
DUPAGE AIRPORT PTCLDY    21  16  81 NW10      30.21R HAZE    WCI  10
KANKAKEE*      CLOUDY   N/A N/A N/A NW8       30.21R HAZE
WHEELING       CLOUDY    24  18  77 NW12      30.22R WCI  13
MORRIS*        CLOUDY    25  22  91 NW10      30.23R FOG     WCI  15
ROMEOVILLE*    CLOUDY    26  21  84 NW3       30.22R
NORTHERLY ISL    N/A     29  23  78 W3          N/A
$$

LMZ740>746-270900-
SOUTHERN LAKE MICHIGAN

STATION/POSITION SKY/WX   TEMP    WIND        PRES    VSBY  WAVE
                          AIR SEA DIR/SP/G                  HT/PER
                          (F)     (DEG/KT/KT) (MB)    (MI)  (FT/S)
SOUTHERN BUOY              32 42  320/ 17/ 21 1022.3R         4/ 6
WAUKEGAN HARBOR            24     320/ 11/ 17   N/A
HARRISON CRIB              27     310/ 13/ 14   N/A
BURNHAM HARBOR             29     330/ 10/ 15   N/A
CALUMET HARBOR             28     280/  7/ 12 1021.2R
MICHIGAN CITY              28     170/  7/  8   N/A
$$

ILZ025>027-034>036-040-047-049-050-058-095>099-270900-
WEST-CENTRAL ILLINOIS

CITY           SKY/WX    TMP DP  RH WIND       PRES   REMARKS
QUINCY         CLOUDY    27  23  85 N10       30.33R FOG     WCI  17
GALESBURG*     CLOUDY    23  21  92 NW7       30.30R WCI  14
MACOMB*        CLOUDY    23  22  96 NW8       30.34R FOG     WCI  14
JACKSONVILLE*  CLOUDY    28  23  84 NW7       30.32R WCI  20
PITTSFIELD*    CLOUDY    27  23  86 NW13      30.33R WCI  16
$$

ILZ028>032-037-038-041>044-048-051>054-059>061-270900-
CENTRAL ILLINOIS

CITY           SKY/WX    TMP DP  RH WIND       PRES   REMARKS
PONTIAC        CLOUDY    26  23  87 NW13      30.25R FOG     WCI  15
BLOOMINGTON    PTCLDY    22  19  88 NW10      30.25R WCI  11
DECATUR        CLEAR     24  19  81 N13       30.25R WCI  12
PEORIA         MOCLDY    24  17  74 NW6       30.29R WCI  17
LACON*         MOCLDY    21  17  85 NW5       30.29R WCI  15
LINCOLN*       MOCLDY    23  20  87 NW3       30.30R
SPRINGFIELD    CLOUDY    26  21  81 NW8       30.29R WCI  18
TAYLORVILLE    CLOUDY    25  21  86 N9        30.27R WCI  15
$$

ILZ033-039-045-046-055>057-062-063-270900-
EAST-CENTRAL ILLINOIS

CITY           SKY/WX    TMP DP  RH WIND       PRES   REMARKS
CHAMPAIGN      PTCLDY    23  19  85 N9        30.22R WCI  13
DANVILLE*      PTCLDY    24  20  85 NW12      30.18R WCI  13
RANTOUL*       CLEAR     24  20  85 NW7       30.22R WCI  16
MATTOON        MOCLDY    26  21  81 N10       30.21R WCI  16
PARIS*         MOCLDY    28  23  84 N6        30.22R WCI  21
$$

ILZ079-100>102-270900-
SOUTHWEST ILLINOIS

CITY           SKY/WX    TMP DP  RH WIND       PRES   REMARKS
ALTON          CLOUDY    30  28  91 NW9       30.30R WCI  21
BELLEVILLE     MIX PCPN  32  32 100 NW13      30.28R WCI  22
CAHOKIA*       CLOUDY    32  29  88 N12       30.31R FOG     WCI  23
SPARTA*        LGT SNOW  31  31  96 N12       30.26R WCI  22
$$

ILZ064>066-069>071-074>076-080>082-084>086-088>090-092>094-270900-
SOUTH-CENTRAL ILLINOIS

CITY           SKY/WX    TMP DP  RH WIND       PRES   REMARKS
CARBONDALE     CLOUDY    33  31  92 NW10      30.23R WCI  25
CAIRO*         CLOUDY    39  34  82 NW16G24   30.22R WCI  30
EFFINGHAM*     FLURRIES  28  24  82 N8        30.23R WCI  20
MARION         FOG       34  32  93 NW7       30.23R VSB 1   WCI  28
MT. VERNON     CLOUDY    30  27  86 CALM      30.23R
CENTRALIA*     CLOUDY    30  28  91 N10       30.24R FOG     WCI  21
SALEM*           N/A     32  29  90 N8        30.23R WCI  25
METROPOLIS*    CLOUDY    37  37 100 NW9         N/A  WCI  30
$$

ILZ067-068-072-073-078-083-087-091-270900-
SOUTHEAST ILLINOIS

CITY           SKY/WX    TMP DP  RH WIND       PRES   REMARKS
LAWRENCEVILLE  CLOUDY    31  28  89 N10       30.20R FOG     WCI  22
FLORA*         PTCLDY    30  29  97 N8        30.22R FOG     WCI  22
FAIRFIELD*     MIX PCPN  31  29  93 N6        30.21R WCI  25
HARRISBURG*    LGT SNOW  33  33 100 N7        30.22R WCI  27
ROBINSON*      CLOUDY    30  26  86 N9        30.21R WCI  22
CARMI*         LGT SNOW  33  33 100 N10       30.20R WCI  25
$$

ABBREVIATIONS USED IN REMARKS
   TC - TEMPERATURE IN CELSIUS
  WCI - WIND CHILL INDEX
   HX - HEAT INDEX
  VSB - VISIBILITY
$$




USA.gov is the U.S. government's official web portal to all federal, state and local government web resources and services.